Вернуться в каталог

GALILEO 17

26D

АктивенНавигацияMEO
NORAD 41861·PAYLOAD·🇪🇺 EU

Запущен Nov 17, 2016 с Guiana Space Centre

Loading…

Ближайшие Пролёты (ближайшие 24 часа)

TLE

СвежийSource: CelesTrak SupGP

Эпоха: Sep 13, 2026, 23:59 UTC

1 41861C 16069C   26256.99979167  .00000000  00000+0  00000+0 0  2564
2 41861  55.5552  98.6297 0001936 329.2542 312.7266  1.70474625    10

Отслеживайте GALILEO 17 в реальном времени с AllMySat

Download on the App Store